[[{"header":{"parameterUnit":"m.s-1","parameterCategory":1,"la1":30.2991,"la2":30.254,"lo1":-89.0895,"lo2":-89.0444,"dy":0.0017,"dx":0.0017,"nx":28,"ny":28,"refTime":"2024-05-17T03:00:00:Z","depth":0,"parameterNumber":2,"parameterNumberName":"U-component_of_WINDS"},"data":[0,0,0,0,0,0,0,0,0,0,0,0,0,0,0,0,0,0,0,0,0,0,0,0,0,0,0,0,0,0,0,0,0,0,0,0,0,0,0,0,0,0,0,0,0,0,0,0,0,0,0,0,0,0,0,0,0,0,-4.789,-4.789,0,-4.7875,-4.7875,-4.7875,-4.7787,-4.7785,-4.7783,-4.7781,-4.7767,-4.7768,-4.777,0,0,0,0,0,0,0,0,0,0,0,0,0,-4.7845,-4.7846,-4.789,-4.789,-4.789,-4.7875,-4.7875,-4.7875,-4.7788,-4.7785,-4.7783,-4.778,-4.7766,-4.7768,-4.777,0,0,0,0,0,0,0,0,0,0,0,0,0,-4.7851,-4.7847,-4.789,-4.7845,-4.784,-4.7875,-4.7875,-4.7875,-4.7788,-4.7785,-4.7782,-4.7779,-4.7766,-4.7768,-4.777,-4.7848,0,0,-4.7778,-4.7779,0,0,0,0,0,0,0,0,-4.7851,-4.7853,-4.7851,-4.7848,-4.7843,-4.783,-4.7854,-4.7866,-4.7789,-4.7808,-4.7781,-4.7777,-4.7791,-4.7791,-4.7795,-4.7848,-4.7847,-4.7778,-4.7779,-4.778,-4.7781,0,0,0,0,0,0,0,-4.785,-4.7853,-4.7884,-4.7852,-4.7846,-4.7825,-4.7823,-4.7856,-4.7817,-4.7806,-4.78,-4.7799,-4.7788,-4.7793,-4.7794,-4.7847,-4.7778,-4.778,-4.7781,-4.7782,-4.7962,-4.7966,0,0,0,0,0,0,-4.7856,-4.7853,-4.7885,-4.7884,-4.7839,-4.7829,-4.7826,-4.7837,-4.7817,-4.781,-4.7802,-4.7795,-4.779,-4.7791,-4.7793,-4.7882,-4.778,-4.7783,-4.7784,-4.7959,-4.7963,-4.7967,0,0,0,0,0,0,-4.7855,-4.786,-4.7885,-4.7867,-4.7868,-4.7833,-4.7847,-4.7839,-4.7843,-4.7813,-4.7806,-4.7814,-4.7788,-4.779,-4.7835,-4.788,-4.7784,-4.7786,-4.7955,-4.796,-4.7965,-4.806,0,0,0,0,0,0,-4.7855,-4.786,-4.7889,-4.7868,-4.787,-4.7927,-4.7849,-4.7841,-4.7848,-4.7839,-4.7823,-4.7817,-4.7785,-4.7832,-4.7837,-4.7881,-4.7788,-4.7951,-4.7958,-4.7963,-4.8053,-4.8068,-4.8081,0,0,0,0,0,-4.7853,-4.7917,-4.7891,-4.7895,-4.7905,-4.793,-4.7931,-4.7893,-4.7852,-4.788,-4.7861,-4.7818,-4.7875,-4.7837,-4.7843,-4.7888,-4.7948,-4.7956,-4.7963,-4.8047,-4.8065,-4.8081,0,0,0,0,0,0,-4.7944,-4.7913,-4.7884,-4.7942,-4.794,-4.7915,-4.795,-4.7914,-4.7923,-4.7914,-4.7867,-4.7864,-4.7916,-4.7907,-4.7866,-4.7962,-4.7904,-4.7913,-4.7966,-4.7983,-4.7997,-4.7997,-4.779,0,0,0,0,0,-4.7971,-4.7994,-4.7966,-4.802,-4.802,-4.7986,-4.7995,-4.7966,-4.7962,-4.796,-4.7944,-4.7941,-4.7958,-4.7971,-4.7985,-4.8052,-4.8047,-4.8086,-4.8101,-4.8112,-4.812,-4.8154,-4.8171,-4.7992,-4.7992,-4.7991,0,0,-4.8027,-4.8013,-4.803,-4.8038,-4.8032,-4.8057,-4.7985,-4.8015,-4.8032,-4.7964,-4.8005,-4.7994,-4.7988,-4.8045,-4.8069,-4.8039,-4.8168,-4.8122,-4.8131,-4.8132,-4.8163,-4.818,-4.8195,-4.7997,-4.7996,-4.7995,0,0,-4.814,-4.8132,-4.8176,-4.8172,-4.8164,-4.8141,-4.8152,-4.8133,-4.8123,-4.8164,-4.8113,-4.8134,-4.8165,-4.8162,-4.8165,-4.8279,-4.8239,-4.8286,-4.8358,-4.8392,-4.8406,-4.8418,-4.8457,-4.8472,-4.8294,-4.8294,-4.8294,0,-4.821,-4.8244,-4.8203,-4.8236,-4.824,-4.8181,-4.8225,-4.8223,-4.8221,-4.8226,-4.8192,-4.8229,-4.8221,-4.8276,-4.8304,-4.8309,-4.8319,-4.8286,-4.8407,-4.8419,-4.8429,-4.8466,-4.8481,-4.83,-4.8299,-4.8299,-4.8298,0,-4.833,-4.8355,-4.8392,-4.839,-4.84,-4.8438,-4.8403,-4.8418,-4.8389,-4.8369,-4.8412,-4.84,-4.8411,-4.8422,-4.8394,-4.8473,-4.8454,-4.8415,-4.8355,-4.8453,-4.8486,-4.85,-4.8308,-4.8306,-4.8304,-4.8303,0,0,-4.8498,-4.8474,-4.8488,-4.8486,-4.8474,-4.8492,-4.8529,-4.8538,-4.8551,-4.8553,-4.8581,-4.8609,-4.8572,-4.8576,-4.8548,-4.8578,-4.8667,-4.8534,-4.8533,-4.8558,-4.8752,-4.878,-4.8797,-4.8642,-4.8644,-4.8646,-4.8752,0,-4.8605,-4.8663,-4.8628,-4.8692,-4.8715,-4.8659,-4.869,-4.8686,-4.867,-4.8687,-4.8669,-4.8689,-4.864,-4.8641,-4.8669,-4.865,-4.8705,-4.8643,-4.8667,-4.8668,-4.8667,-4.8815,-4.8844,-4.8944,-4.8765,-4.8767,-4.8769,0,-4.8737,-4.8743,-4.8809,-4.8792,-4.88,-4.8829,-4.8835,-4.8852,-4.8847,-4.8833,-4.8837,-4.8802,-4.8836,-4.8779,-4.8825,-4.8784,-4.8792,-4.8785,-4.8788,-4.8786,-4.8722,-4.8816,-4.8975,-4.899,-4.8789,-4.8788,-4.8786,0,-4.885,-4.8876,-4.8918,-4.8919,-4.8901,-4.8922,-4.8915,-4.8907,-4.8915,-4.8921,-4.8926,-4.8937,-4.8942,-4.8951,-4.892,-4.8881,-4.897,-4.891,-4.8959,-4.8959,-4.8978,-4.8976,-4.9139,-4.8987,-4.8987,-4.8987,-4.8986,0,-4.8972,-4.9015,-4.8969,-4.8995,-4.9041,-4.9,-4.9047,-4.9035,-4.9028,-4.9051,-4.9005,-4.9027,-4.8985,-4.9004,-4.898,-4.9021,-4.9024,-4.9014,-4.9006,-4.9016,-4.9017,-4.9019,-4.9011,-4.8991,-4.899,-4.8989,-4.8988,0,-4.9106,-4.9077,-4.9119,-4.9099,-4.9095,-4.9129,-4.9112,-4.9135,-4.9116,-4.9146,-4.915,-4.9121,-4.914,-4.911,-4.9126,-4.911,-4.9167,-4.915,-4.9168,-4.9162,-4.9212,-4.9207,-4.9379,-4.9399,-4.9237,-4.9239,-4.924,0,-4.9184,-4.9215,-4.9198,-4.921,-4.9206,-4.9225,-4.9233,-4.9196,-4.9206,-4.9203,-4.9227,-4.9242,-4.9252,-4.9286,-4.9266,-4.9278,-4.926,-4.932,-4.9262,-4.9271,-4.9259,-4.9256,-4.9259,-4.9331,-4.9333,-4.9335,-4.9336,0,-4.9326,-4.931,-4.9323,-4.9332,-4.9342,-4.9347,-4.9349,-4.9362,-4.9322,-4.9336,-4.9355,-4.9363,-4.9379,-4.9395,-4.9403,-4.9396,-4.936,-4.9355,-4.9366,-4.9376,-4.9384,-4.9378,-4.9198,-4.9351,-4.9349,-4.9348,-4.9347,-4.9347,-4.9433,-4.9457,-4.9449,-4.9465,-4.9462,-4.9465,-4.9486,-4.9469,-4.9484,-4.9494,-4.9472,-4.9496,-4.949,-4.9496,-4.9494,-4.9513,-4.9487,-4.9504,-4.9508,-4.9512,-4.9519,-4.9383,-4.9515,-4.9514,-4.9514,-4.9513,-4.9513,0,-4.9571,-4.9563,-4.9578,-4.9581,-4.9594,-4.9559,-4.9559,-4.9572,-4.9594,-4.9592,-4.9603,-4.9624,-4.964,-4.9622,-4.9634,-4.9652,-4.9636,-4.9656,-4.9653,-4.9652,-4.9543,-4.953,-4.9669,-4.9669,-4.9669,-4.9669,-4.9669,-4.9669,-4.9643,-4.9683,-4.9667,-4.9704,-4.9696,-4.9719,-4.9722,-4.9724,-4.9722,-4.9748,-4.976,-4.9748,-4.974,-4.9751,-4.9764,-4.9758,-4.9764,-4.979,-4.9778,-4.9676,-4.966,-4.9646,-4.9634,-4.9792,-4.9792,-4.9886,-4.9887,-4.9888]},{"header":{"parameterUnit":"m.s-1","parameterCategory":1,"la1":30.2991,"la2":30.254,"lo1":-89.0895,"lo2":-89.0444,"dy":0.0017,"dx":0.0017,"nx":28,"ny":28,"refTime":"2024-05-17T03:00:00:Z","depth":0,"parameterNumber":3,"parameterNumberName":"V-component_of_WINDS"},"data":[0,0,0,0,0,0,0,0,0,0,0,0,0,0,0,0,0,0,0,0,0,0,0,0,0,0,0,0,0,0,0,0,0,0,0,0,0,0,0,0,0,0,0,0,0,0,0,0,0,0,0,0,0,0,0,0,0,0,5.4046,5.4046,0,5.406,5.406,5.4061,5.4012,5.4011,5.401,5.4008,5.4021,5.4023,5.4025,0,0,0,0,0,0,0,0,0,0,0,0,0,5.3975,5.3976,5.4046,5.4046,5.4046,5.406,5.406,5.4061,5.4013,5.4011,5.4009,5.4008,5.4021,5.4023,5.4025,0,0,0,0,0,0,0,0,0,0,0,0,0,5.3999,5.3977,5.4046,5.4024,5.4022,5.406,5.406,5.4061,5.4013,5.4011,5.4009,5.4007,5.402,5.4022,5.4025,5.4084,0,0,5.4033,5.4034,0,0,0,0,0,0,0,0,5.3998,5.4002,5.4027,5.4025,5.4023,5.4032,5.404,5.4068,5.4014,5.4016,5.4008,5.4006,5.4027,5.4028,5.4036,5.4085,5.4085,5.4033,5.4034,5.4036,5.4036,0,0,0,0,0,0,0,5.3996,5.4001,5.4051,5.4027,5.4025,5.4013,5.4014,5.4045,5.4033,5.4016,5.4013,5.4015,5.4025,5.4034,5.4036,5.4085,5.4033,5.4035,5.4037,5.4038,5.4184,5.4187,0,0,0,0,0,0,5.3998,5.4,5.4051,5.4052,5.4005,5.4016,5.4017,5.4032,5.4033,5.4031,5.4017,5.4013,5.403,5.4033,5.4036,5.4106,5.4036,5.4038,5.4039,5.4182,5.4185,5.4187,0,0,0,0,0,0,5.3996,5.4003,5.405,5.4025,5.403,5.402,5.4036,5.4033,5.4041,5.4034,5.4031,5.4028,5.4029,5.4032,5.4073,5.4105,5.4039,5.4041,5.4179,5.4183,5.4186,5.4245,0,0,0,0,0,0,5.3994,5.4002,5.4025,5.4026,5.4032,5.4087,5.4038,5.4035,5.4046,5.4041,5.4043,5.4041,5.4027,5.4069,5.4075,5.4108,5.4043,5.4176,5.4181,5.4185,5.424,5.425,5.4259,0,0,0,0,0,5.3992,5.404,5.4026,5.4033,5.406,5.4089,5.4092,5.4076,5.4049,5.4071,5.4067,5.4041,5.4101,5.4074,5.408,5.4114,5.4174,5.418,5.4185,5.4236,5.4248,5.4258,0,0,0,0,0,0,5.4042,5.404,5.4024,5.4074,5.4083,5.4081,5.4108,5.4089,5.4104,5.4099,5.4077,5.4078,5.4122,5.4122,5.4092,5.4171,5.4133,5.414,5.417,5.4181,5.419,5.4189,5.4046,0,0,0,0,0,5.4059,5.4084,5.4081,5.4125,5.413,5.4119,5.4131,5.4118,5.4125,5.4128,5.4126,5.4133,5.4154,5.4168,5.4186,5.424,5.424,5.4267,5.4276,5.4284,5.429,5.4319,5.433,5.4205,5.4205,5.4205,0,0,5.4094,5.4096,5.4113,5.4135,5.414,5.4166,5.4122,5.4151,5.417,5.4132,5.417,5.4169,5.4176,5.4224,5.4245,5.4225,5.4324,5.4291,5.4297,5.4298,5.4325,5.4337,5.4348,5.4209,5.4208,5.4207,0,0,5.4171,5.4176,5.4213,5.4219,5.4228,5.422,5.4229,5.4231,5.423,5.4268,5.424,5.4262,5.4298,5.4304,5.4312,5.4394,5.4371,5.44,5.4449,5.4477,5.4487,5.4496,5.4524,5.4535,5.4407,5.4407,5.4407,0,5.4213,5.4252,5.4235,5.4266,5.4277,5.4245,5.4283,5.429,5.4303,5.4311,5.429,5.4334,5.4337,5.4386,5.4406,5.4413,5.4423,5.4399,5.4487,5.4496,5.4503,5.4531,5.4541,5.441,5.441,5.4409,5.4409,0,5.4303,5.4331,5.436,5.4375,5.4389,5.4424,5.4412,5.4428,5.4414,5.4409,5.4449,5.4451,5.4469,5.448,5.4466,5.4528,5.4515,5.4491,5.4451,5.4519,5.4544,5.4555,5.4415,5.4414,5.4413,5.4412,0,0,5.441,5.4417,5.4428,5.4435,5.4443,5.4463,5.4497,5.4516,5.453,5.4541,5.4568,5.46,5.4578,5.4587,5.4574,5.4599,5.4663,5.4571,5.4571,5.4588,5.4731,5.4749,5.4761,5.4649,5.4651,5.4653,5.473,0,5.4486,5.4544,5.453,5.4587,5.4612,5.4583,5.4613,5.462,5.4617,5.4637,5.4633,5.4656,5.4625,5.4631,5.4654,5.4651,5.4692,5.4645,5.4673,5.4675,5.4672,5.4774,5.4793,5.4866,5.474,5.4742,5.4743,0,5.4581,5.4597,5.4657,5.4662,5.4671,5.4698,5.4715,5.4735,5.4743,5.4739,5.475,5.4733,5.4765,5.4727,5.4772,5.474,5.4751,5.4752,5.4754,5.4755,5.4712,5.4777,5.4889,5.4899,5.4758,5.4757,5.4756,0,5.4653,5.4689,5.473,5.4737,5.4743,5.4763,5.4766,5.4772,5.4785,5.48,5.4808,5.4826,5.4836,5.4851,5.4838,5.4812,5.4885,5.4846,5.4882,5.4883,5.4898,5.4897,5.5012,5.4907,5.4906,5.4906,5.4906,0,5.4738,5.4776,5.4762,5.4787,5.4829,5.4813,5.4854,5.4854,5.4861,5.4885,5.4861,5.4884,5.4867,5.4889,5.488,5.4918,5.4923,5.492,5.4917,5.4922,5.4922,5.4928,5.4922,5.4909,5.4909,5.4908,5.4907,0,5.4825,5.4817,5.486,5.4863,5.4865,5.4895,5.4898,5.4921,5.4917,5.4947,5.4954,5.4947,5.4971,5.4961,5.4986,5.498,5.5029,5.502,5.5027,5.5024,5.5061,5.5057,5.5182,5.5198,5.5084,5.5085,5.5086,0,5.4879,5.4907,5.4914,5.493,5.4935,5.4959,5.4973,5.4959,5.4974,5.4986,5.5008,5.5031,5.5048,5.5088,5.5085,5.5104,5.5094,5.5137,5.5097,5.5101,5.5094,5.5093,5.5095,5.5145,5.5146,5.5147,5.5148,0,5.4976,5.4972,5.4992,5.5012,5.5029,5.5044,5.5056,5.507,5.5057,5.5074,5.51,5.5113,5.514,5.5163,5.518,5.5183,5.5163,5.5161,5.517,5.5175,5.5178,5.5176,5.5048,5.5158,5.5157,5.5156,5.5156,5.5155,5.5048,5.5072,5.5081,5.5105,5.5114,5.5126,5.5148,5.5147,5.5168,5.519,5.518,5.521,5.5218,5.524,5.5246,5.5268,5.5251,5.5265,5.5268,5.5271,5.5276,5.5175,5.5271,5.5271,5.5271,5.527,5.527,0,5.5143,5.5148,5.5171,5.519,5.5209,5.519,5.5204,5.522,5.5247,5.5257,5.5275,5.5304,5.5326,5.5326,5.5346,5.5364,5.5356,5.537,5.5368,5.5369,5.529,5.528,5.5376,5.5376,5.5376,5.5376,5.5376,5.5376,5.5195,5.5235,5.5232,5.5276,5.5281,5.531,5.5319,5.5331,5.5339,5.5373,5.5392,5.5392,5.5397,5.5418,5.5438,5.5437,5.5445,5.5463,5.5459,5.5385,5.5374,5.5364,5.5354,5.5465,5.5465,5.5536,5.5536,5.5537]}]]